Kosmos-2433

operational
NORAD ID: 32277 Int'l Des: 2007-052 Owner: KVR/IACG Country: RU Constellation: GLONASS
MEOCIRCULAR

Kosmos-2433について

説明を読み込み中...

リアルタイム位置

3D地球を読み込み中...

次回通過

高度履歴

Altitude vs Time

uPlot chart will show altitude changes over time

軌道要素

1 32277U 07052C 25348.27336507 -.00000063 00000-0 00000-0 0 9990
2 32277 65.6954 322.0811 0014940 181.5428 358.1612 2.13209122141275
Epoch: Dec 14, 2025 • Age: 105 hours

現在のステータス

高度 19161.2 km
速度 3.95 km/s
衛星直下点 -41.86°S, 29.94°W
打ち上げ日 Oct 26, 2007
運用期間 18.1 years
タイプ other

技術仕様

分類 Payload
質量 1450.00 kg
乾燥質量 1200.00 kg
総質量 1450.00 kg
長さ 4.00 m
直径 1.50 m
スパン 7.80 m
形状 Cyl + Ant + 2 Pan
製造者 RESH
バスタイプ Uragan
フェーズステータス In Orbit
所有者/国 KVR/IACG/RU

大規模コンステレーション

Loading constellations...